Lundi 24 juin 2024   -   semaine 26                    on fête: Baptiste                    soleil  (+0 mn) lever du soleil 05:55:00 coucher du soleil 21:42:00                    lune Lune gibbeuse décroissante
Sélection

Sélection d'un SYNOP

   Synop:       

  Période à consulter:

Actuelle
Archive     

Relevé

Dernier relevé du SYNOP pour la période choisie

Conditions météo à la station de Vichy/Charmeil (4610N 00324E)    altitude 251m

Date du relevé24/06/2024 à 04:00
Base des nuages1500 à 2000m
Visibilité20km
Nébulosité8/8 (ciel couvert)
Vent2 km/h N
Température15.4 C
Température mini / 12h0.0 C
Humidité86.2 %
Point de rosée13.1 C
Pression absolue988.6 hPa
Pression relative1018.1 hPa
Variation pression-0.8 hPa stationnaire ou en hausse puis en baisse, puis en baisse plus rapide

24h

Historique de la période choisie

Certaines stations ne diffusent pas en continu, d'où l'absence possible de données à certaines heures. Le tableau ci-dessous récapitule l'historique des relevés de la station de Vichy/Charmeil.

Date - Heure Base des nuages Visibilité Nébulosité Vent - Secteur Température Humidité Point rosée Pression / Géopotentiel Précipitations Temps
24/06 04:00 1500 à 2000m 20km 8/8 2 km/h N 15.4 C 86.2 % 13.1 C 1018.1 hPa
24/06 03:00 1000 à 1500m 20km 8/8 2 km/h NNE 16.0 C 82.9 % 13.1 C 1018.5 hPa
24/06 02:00 1000 à 1500m 20km 8/8 2 km/h N 16.7 C 76.8 % 12.6 C 1018.6 hPa 0 mm/6h
24/06 01:00 2000 à 2500m 20km 8/8 4 km/h N 17.3 C 73.0 % 12.4 C 1018.8 hPa
24/06 00:00 2000 à 2500m 20km 8/8 4 km/h N 17.5 C 73.9 % 12.8 C 1019.1 hPa
23/06 23:00 1500 à 2000m 20km 8/8 2 km/h NNO 16.8 C 77.8 % 12.9 C 1019.2 hPa
23/06 22:00 1500 à 2000m 16km 8/8 2 km/h NO 17.1 C 82.0 % 14.0 C 1019.1 hPa
23/06 21:00 1500 à 2000m 20km 8/8 4 km/h N 19.4 C 69.2 % 13.6 C 1018.7 hPa
23/06 20:00 1500 à 2000m 20km 8/8 4 km/h N 20.2 C 62.9 % 12.9 C 1018.4 hPa 0 mm/12h
23/06 19:00 1500 à 2000m 20km 8/8 6 km/h N 20.8 C 57.9 % 12.2 C 1018.1 hPa
23/06 18:00 1000 à 1500m 20km 8/8 7 km/h N 21.0 C 57.9 % 12.4 C 1018.2 hPa
23/06 17:00 300 à 600m 20km 8/8 7 km/h NNO 20.8 C 56.0 % 11.7 C 1018.2 hPa
23/06 16:00 1000 à 1500m 20km 8/8 11 km/h N 21.3 C 52.9 % 11.3 C 1018.3 hPa
23/06 15:00 1000 à 1500m 20km 8/8 9 km/h N 20.8 C 57.1 % 12.0 C 1018.4 hPa
23/06 14:00 1000 à 1500m 19km 8/8 7 km/h N 20.5 C 57.8 % 11.9 C 1018.8 hPa 0 mm/6h
23/06 13:00 600 à 1000m 20km 7/8 7 km/h N 19.9 C 60.0 % 11.9 C 1019.1 hPa
23/06 12:00 1000 à 1500m 20km 8/8 6 km/h N 17.9 C 75.0 % 13.4 C 1019.5 hPa
23/06 11:00 600 à 1000m 19km 6/8 6 km/h NE 19.0 C 69.1 % 13.2 C 1019.3 hPa
23/06 10:00 600 à 1000m 20km 7/8 6 km/h NNE 16.4 C 78.8 % 12.7 C 1020.1 hPa
23/06 09:00 600 à 1000m 20km 8/8 4 km/h N 15.0 C 83.9 % 12.3 C 1020.0 hPa
23/06 08:00 plus de 2500m 20km 8/8 2 km/h NO 14.2 C 86.1 % 11.9 C 1019.7 hPa 0 mm/12h
23/06 07:00 1000 à 1500m 20km 8/8 2 km/h NO 13.4 C 93.1 % 12.3 C 1019.4 hPa
23/06 06:00 1500 à 2000m 20km 8/8 2 km/h O 13.0 C 94.3 % 12.1 C 1019.5 hPa
23/06 05:00 2000 à 2500m 20km 8/8 0 km/h N 13.1 C 93.0 % 12.0 C 1019.1 hPa

Source: ogimet